Tracking 29892 objects as of 21-Nov-2024
HD Live streaming from Space Station
objects crossing your sky now

STARLINK-30091

Track STARLINK-30091 now!
10-day predictions
STARLINK-30091 is classified as:


NORAD ID: 57463
Int'l Code: 2023-107G
Perigee: 565.7 km
Apogee: 566.7 km
Inclination: 43.0 °
Period: 95.8 minutes
Semi major axis: 6937 km
RCS: Unknown
Launch date: July 28, 2023
Source: (TBD)
Launch site: AIR FORCE EASTERN TEST RANGE (AFETR)
Your satellite tracking list
Your tracking list is empty




NASA's NSSDC Master Catalog

Two Line Element Set (TLE):
1 57463U 23107G   24325.70471419  .00000869  00000-0  79338-4 0  9994
2 57463  43.0033  34.4828 0000725 320.7334  39.3455 15.02552827 73810
Source of the keplerian elements: AFSPC